GAOFEN-12 03

Last updated on Fri Oct 04 2024 00:02:26 GMT+0000 (Coordinated Universal Time)

1 52912U 22069A 24277.60439455 .00007587 00000+0 98880-3 0 9998 2 52912 97.8947 167.0671 0009205 163.1252 197.0268 14.80827116122656
UTC large
Height (km)
Speed (km/s)
/
Latitude / Longitude
Inclination (degrees)
Orbital Period (minutes)
Azimuth
Elevation
Range (km)
Doppler Factor

Next 0 passes for location: London (51.5072 / 0.1276)

Sorry there are no passes over London.